Time,TemperatureF,DewpointF,PressureIn,WindDirection,WindDirectionDegrees,WindSpeedMPH,WindSpeedGustMPH,Humidity,HourlyPrecipIn,Conditions,Clouds,dailyrainin,SoftwareType,DateUTC
2013-07-08 00:01:00,76.3,66.6,29.89,East,90,0.7,1.6,72,0.00,,,0.00,WUHU216EASYWX,2013-07-08 05:01:00,
2013-07-08 00:07:00,76.6,66.9,29.89,East,90,0.0,1.6,72,0.00,,,0.00,WUHU216EASYWX,2013-07-08 05:07:00,
2013-07-08 00:12:00,76.8,66.7,29.89,NE,45,0.0,0.7,71,0.00,,,0.00,WUHU216EASYWX,2013-07-08 05:12:00,
2013-07-08 00:17:00,76.6,66.6,29.89,East,90,0.0,0.7,71,0.00,,,0.00,WUHU216EASYWX,2013-07-08 05:17:00,
2013-07-08 00:22:00,76.6,66.6,29.89,East,90,0.0,0.7,71,0.00,,,0.00,WUHU216EASYWX,2013-07-08 05:22:00,
2013-07-08 00:27:00,76.8,66.7,29.89,East,90,0.7,1.6,71,0.00,,,0.00,WUHU216EASYWX,2013-07-08 05:27:00,
2013-07-08 00:32:00,77.0,66.6,29.89,SE,135,1.6,2.2,70,0.00,,,0.00,WUHU216EASYWX,2013-07-08 05:32:00,
2013-07-08 00:37:00,77.2,66.2,29.89,East,90,0.7,2.2,69,0.00,,,0.00,WUHU216EASYWX,2013-07-08 05:37:00,
2013-07-08 00:42:00,77.2,66.2,29.89,East,90,0.7,2.2,69,0.00,,,0.00,WUHU216EASYWX,2013-07-08 05:42:00,
2013-07-08 00:47:00,77.2,65.8,29.89,NW,315,0.7,2.2,68,0.00,,,0.00,WUHU216EASYWX,2013-07-08 05:47:00,
2013-07-08 00:52:00,77.0,65.7,29.89,South,180,0.0,2.2,68,0.00,,,0.00,WUHU216EASYWX,2013-07-08 05:52:00,
2013-07-08 00:57:00,77.0,65.7,29.90,SE,135,0.0,1.6,68,0.00,,,0.00,WUHU216EASYWX,2013-07-08 05:57:00,
2013-07-08 01:02:00,77.0,65.7,29.89,SW,225,0.0,1.6,68,0.00,,,0.00,WUHU216EASYWX,2013-07-08 06:02:00,
2013-07-08 01:07:00,77.0,65.7,29.89,SW,225,0.0,0.0,68,0.00,,,0.00,WUHU216EASYWX,2013-07-08 06:07:00,
2013-07-08 01:12:00,77.0,65.7,29.89,South,180,0.0,0.0,68,0.00,,,0.00,WUHU216EASYWX,2013-07-08 06:12:00,
2013-07-08 01:17:00,77.0,66.0,29.89,ENE,68,0.0,1.6,69,0.00,,,0.00,WUHU216EASYWX,2013-07-08 06:17:00,
2013-07-08 01:22:00,77.0,65.7,29.89,East,90,0.0,1.6,68,0.00,,,0.00,WUHU216EASYWX,2013-07-08 06:22:00,
2013-07-08 01:27:00,77.2,65.8,29.89,SE,135,0.0,0.7,68,0.00,,,0.00,WUHU216EASYWX,2013-07-08 06:27:00,
2013-07-08 01:33:00,77.2,65.8,29.89,East,90,0.0,0.7,68,0.00,,,0.00,WUHU216EASYWX,2013-07-08 06:33:00,
2013-07-08 01:38:00,77.0,65.7,29.88,North,0,0.0,0.7,68,0.00,,,0.00,WUHU216EASYWX,2013-07-08 06:38:00,
2013-07-08 01:44:00,77.0,65.7,29.89,SE,135,0.0,0.7,68,0.00,,,0.00,WUHU216EASYWX,2013-07-08 06:44:00,
2013-07-08 01:49:00,77.0,65.7,29.89,East,90,0.0,0.7,68,0.00,,,0.00,WUHU216EASYWX,2013-07-08 06:49:00,
2013-07-08 01:54:00,76.8,66.0,29.89,SE,135,0.0,0.7,69,0.00,,,0.00,WUHU216EASYWX,2013-07-08 06:54:00,
2013-07-08 01:59:00,76.6,66.2,29.89,NE,45,0.0,0.7,70,0.00,,,0.00,WUHU216EASYWX,2013-07-08 06:59:00,
2013-07-08 02:04:00,76.5,66.0,29.90,NE,45,0.0,0.0,70,0.00,,,0.00,WUHU216EASYWX,2013-07-08 07:04:00,
2013-07-08 02:09:00,76.1,66.0,29.90,NE,45,0.0,0.0,71,0.00,,,0.00,WUHU216EASYWX,2013-07-08 07:09:00,
2013-07-08 02:14:00,75.7,65.7,29.89,NE,45,0.0,0.0,71,0.00,,,0.00,WUHU216EASYWX,2013-07-08 07:14:00,
2013-07-08 02:19:00,75.2,65.1,29.89,NE,45,0.0,0.0,71,0.00,,,0.00,WUHU216EASYWX,2013-07-08 07:19:00,
2013-07-08 02:24:00,74.8,65.7,29.90,NE,45,0.0,0.0,73,0.00,,,0.00,WUHU216EASYWX,2013-07-08 07:24:00,
2013-07-08 02:29:00,74.7,65.5,29.90,NE,45,0.0,0.0,73,0.00,,,0.00,WUHU216EASYWX,2013-07-08 07:29:00,
2013-07-08 02:34:00,74.3,65.5,29.90,NE,45,0.0,0.0,74,0.00,,,0.00,WUHU216EASYWX,2013-07-08 07:34:00,
2013-07-08 02:39:00,73.8,64.9,29.90,NE,45,0.0,0.0,74,0.00,,,0.00,WUHU216EASYWX,2013-07-08 07:39:00,
2013-07-08 02:44:00,73.4,65.1,29.89,NE,45,0.0,0.0,75,0.00,,,0.00,WUHU216EASYWX,2013-07-08 07:44:00,
2013-07-08 02:49:00,73.2,65.3,29.90,NE,45,0.0,0.0,76,0.00,,,0.00,WUHU216EASYWX,2013-07-08 07:49:00,
2013-07-08 02:54:00,73.0,65.5,29.90,East,90,0.0,0.0,77,0.00,,,0.00,WUHU216EASYWX,2013-07-08 07:54:00,
2013-07-08 02:59:00,72.7,65.5,29.89,East,90,0.0,0.0,78,0.00,,,0.00,WUHU216EASYWX,2013-07-08 07:59:00,
2013-07-08 03:04:00,72.5,65.3,29.90,East,90,0.0,0.0,78,0.00,,,0.00,WUHU216EASYWX,2013-07-08 08:04:00,
2013-07-08 03:09:00,72.5,65.3,29.89,East,90,0.0,0.0,78,0.00,,,0.00,WUHU216EASYWX,2013-07-08 08:09:00,
2013-07-08 03:14:00,72.3,65.1,29.90,East,90,0.0,0.0,78,0.00,,,0.00,WUHU216EASYWX,2013-07-08 08:14:00,
2013-07-08 03:19:00,72.1,65.3,29.90,North,0,0.0,0.0,79,0.00,,,0.00,WUHU216EASYWX,2013-07-08 08:19:00,
2013-07-08 03:24:00,72.0,65.1,29.90,SW,225,0.0,0.0,79,0.00,,,0.00,WUHU216EASYWX,2013-07-08 08:24:00,
2013-07-08 03:29:00,71.8,64.9,29.90,East,90,0.0,0.0,79,0.00,,,0.00,WUHU216EASYWX,2013-07-08 08:29:00,
2013-07-08 03:34:00,72.1,65.3,29.90,South,180,0.0,0.7,79,0.00,,,0.00,WUHU216EASYWX,2013-07-08 08:34:00,
2013-07-08 03:39:00,72.3,65.5,29.90,SW,225,0.0,0.7,79,0.00,,,0.00,WUHU216EASYWX,2013-07-08 08:39:00,
2013-07-08 03:44:00,72.7,65.8,29.90,East,90,0.0,0.7,79,0.00,,,0.00,WUHU216EASYWX,2013-07-08 08:44:00,
2013-07-08 03:49:00,73.0,65.8,29.90,South,180,0.0,0.7,78,0.00,,,0.00,WUHU216EASYWX,2013-07-08 08:49:00,
2013-07-08 03:54:00,73.4,65.8,29.90,NE,45,0.0,0.7,77,0.00,,,0.00,WUHU216EASYWX,2013-07-08 08:54:00,
2013-07-08 03:59:00,73.6,66.0,29.90,East,90,0.7,2.2,77,0.00,,,0.00,WUHU216EASYWX,2013-07-08 08:59:00,
2013-07-08 04:04:00,73.9,66.0,29.90,SE,135,0.0,2.2,76,0.00,,,0.00,WUHU216EASYWX,2013-07-08 09:04:00,
2013-07-08 04:09:00,74.1,65.7,29.90,NE,45,0.0,0.7,75,0.00,,,0.00,WUHU216EASYWX,2013-07-08 09:09:00,
2013-07-08 04:14:00,74.3,65.8,29.90,SE,135,0.0,0.7,75,0.00,,,0.00,WUHU216EASYWX,2013-07-08 09:14:00,
2013-07-08 04:20:00,74.7,65.8,29.90,East,90,0.0,1.6,74,0.00,,,0.00,WUHU216EASYWX,2013-07-08 09:20:00,
2013-07-08 04:25:00,74.7,65.8,29.90,NE,45,0.0,1.6,74,0.00,,,0.00,WUHU216EASYWX,2013-07-08 09:25:00,
2013-07-08 04:30:00,74.7,65.8,29.90,SSW,203,0.0,1.6,74,0.00,,,0.00,WUHU216EASYWX,2013-07-08 09:30:00,
2013-07-08 04:35:00,74.8,65.7,29.90,SE,135,0.0,1.6,73,0.00,,,0.00,WUHU216EASYWX,2013-07-08 09:35:00,
2013-07-08 04:40:00,74.5,65.7,29.90,SE,135,0.7,1.6,74,0.00,,,0.00,WUHU216EASYWX,2013-07-08 09:40:00,
2013-07-08 04:45:00,74.3,65.5,29.90,NE,45,0.0,1.6,74,0.00,,,0.00,WUHU216EASYWX,2013-07-08 09:45:00,
2013-07-08 04:50:00,74.1,65.3,29.90,East,90,0.0,0.7,74,0.00,,,0.00,WUHU216EASYWX,2013-07-08 09:50:00,
2013-07-08 04:55:00,73.8,64.9,29.90,East,90,0.0,0.7,74,0.00,,,0.00,WUHU216EASYWX,2013-07-08 09:55:00,
2013-07-08 05:00:00,73.6,64.8,29.90,SE,135,0.0,0.0,74,0.00,,,0.00,WUHU216EASYWX,2013-07-08 10:00:00,
2013-07-08 05:05:00,73.6,64.8,29.90,SE,135,0.0,0.0,74,0.00,,,0.00,WUHU216EASYWX,2013-07-08 10:05:00,
2013-07-08 05:10:00,73.2,64.9,29.91,North,0,0.0,1.6,75,0.00,,,0.00,WUHU216EASYWX,2013-07-08 10:10:00,
2013-07-08 05:15:00,73.2,64.9,29.91,East,90,0.0,1.6,75,0.00,,,0.00,WUHU216EASYWX,2013-07-08 10:15:00,
2013-07-08 05:20:00,72.9,64.9,29.91,East,90,0.0,0.7,76,0.00,,,0.00,WUHU216EASYWX,2013-07-08 10:20:00,
2013-07-08 05:25:00,72.5,64.9,29.91,East,90,0.0,0.7,77,0.00,,,0.00,WUHU216EASYWX,2013-07-08 10:25:00,
2013-07-08 05:30:00,72.1,64.6,29.91,East,90,0.0,0.0,77,0.00,,,0.00,WUHU216EASYWX,2013-07-08 10:30:00,
2013-07-08 05:35:00,71.8,64.6,29.91,East,90,0.0,0.0,78,0.00,,,0.00,WUHU216EASYWX,2013-07-08 10:35:00,
2013-07-08 05:40:00,71.6,64.4,29.91,East,90,0.0,0.0,78,0.00,,,0.00,WUHU216EASYWX,2013-07-08 10:40:00,
2013-07-08 05:45:00,71.4,64.6,29.91,East,90,0.0,0.0,79,0.00,,,0.00,WUHU216EASYWX,2013-07-08 10:45:00,
2013-07-08 05:50:00,71.2,64.8,29.91,East,90,0.0,0.0,80,0.00,,,0.00,WUHU216EASYWX,2013-07-08 10:50:00,
2013-07-08 05:55:00,71.1,64.6,29.91,East,90,0.0,0.0,80,0.00,,,0.00,WUHU216EASYWX,2013-07-08 10:55:00,
2013-07-08 06:00:00,70.9,64.8,29.91,East,90,0.0,0.0,81,0.00,,,0.00,WUHU216EASYWX,2013-07-08 11:00:00,
2013-07-08 06:05:00,70.7,64.6,29.91,East,90,0.0,0.0,81,0.00,,,0.00,WUHU216EASYWX,2013-07-08 11:05:00,
2013-07-08 06:10:00,70.3,64.2,29.91,East,90,0.0,0.0,81,0.00,,,0.00,WUHU216EASYWX,2013-07-08 11:10:00,
2013-07-08 06:15:00,70.2,64.4,29.91,East,90,0.0,0.0,82,0.00,,,0.00,WUHU216EASYWX,2013-07-08 11:15:00,
2013-07-08 06:20:00,70.2,64.4,29.91,East,90,0.0,0.0,82,0.00,,,0.00,WUHU216EASYWX,2013-07-08 11:20:00,
2013-07-08 06:27:00,70.3,64.9,29.91,East,90,0.0,0.0,83,0.00,,,0.00,WUHU216EASYWX,2013-07-08 11:27:00,
2013-07-08 06:32:00,70.3,64.9,29.91,East,90,0.0,0.0,83,0.00,,,0.00,WUHU216EASYWX,2013-07-08 11:32:00,
2013-07-08 06:37:00,70.5,65.1,29.91,NE,45,0.0,0.7,83,0.00,,,0.00,WUHU216EASYWX,2013-07-08 11:37:00,
2013-07-08 06:42:00,70.9,65.5,29.92,North,0,0.0,0.7,83,0.00,,,0.00,WUHU216EASYWX,2013-07-08 11:42:00,
2013-07-08 06:47:00,71.2,65.5,29.91,South,180,0.0,0.7,82,0.00,,,0.00,WUHU216EASYWX,2013-07-08 11:47:00,
2013-07-08 06:52:00,71.8,65.7,29.92,North,0,0.7,3.1,81,0.00,,,0.00,WUHU216EASYWX,2013-07-08 11:52:00,
2013-07-08 06:57:00,72.9,66.4,29.92,South,180,0.0,3.1,80,0.00,,,0.00,WUHU216EASYWX,2013-07-08 11:57:00,
2013-07-08 07:02:00,73.9,67.5,29.92,East,90,0.0,0.7,80,0.00,,,0.00,WUHU216EASYWX,2013-07-08 12:02:00,
2013-07-08 07:07:00,73.9,67.5,29.93,East,90,0.0,0.7,80,0.00,,,0.00,WUHU216EASYWX,2013-07-08 12:07:00,
2013-07-08 07:12:00,74.5,66.9,29.93,East,90,0.0,0.7,77,0.00,,,0.00,WUHU216EASYWX,2013-07-08 12:12:00,
2013-07-08 07:17:00,75.2,66.7,29.93,South,180,0.0,1.6,75,0.00,,,0.00,WUHU216EASYWX,2013-07-08 12:17:00,
2013-07-08 07:22:00,75.9,67.1,29.93,SE,135,0.0,1.6,74,0.00,,,0.00,WUHU216EASYWX,2013-07-08 12:22:00,
2013-07-08 07:27:00,76.6,67.5,29.94,East,90,0.7,1.6,73,0.00,,,0.00,WUHU216EASYWX,2013-07-08 12:27:00,
2013-07-08 07:32:00,77.0,66.9,29.93,NE,45,0.0,1.6,71,0.00,,,0.00,WUHU216EASYWX,2013-07-08 12:32:00,
2013-07-08 07:37:00,77.2,67.1,29.93,South,180,2.2,3.1,71,0.00,,,0.00,WUHU216EASYWX,2013-07-08 12:37:00,
2013-07-08 07:42:00,77.5,67.5,29.93,NE,45,0.0,3.1,71,0.00,,,0.00,WUHU216EASYWX,2013-07-08 12:42:00,
2013-07-08 07:47:00,78.1,67.6,29.94,South,180,0.0,0.7,70,0.00,,,0.00,WUHU216EASYWX,2013-07-08 12:47:00,
2013-07-08 07:52:00,78.8,67.8,29.93,SE,135,0.7,1.6,69,0.00,,,0.00,WUHU216EASYWX,2013-07-08 12:52:00,
2013-07-08 07:57:00,80.6,67.8,29.94,SW,225,0.7,1.6,65,0.00,,,0.00,WUHU216EASYWX,2013-07-08 12:57:00,
2013-07-08 08:02:00,82.2,68.0,29.94,East,90,1.6,3.1,62,0.00,,,0.00,WUHU216EASYWX,2013-07-08 13:02:00,
2013-07-08 08:07:00,82.2,68.0,29.94,East,90,1.6,3.1,62,0.00,,,0.00,WUHU216EASYWX,2013-07-08 13:07:00,
2013-07-08 08:12:00,84.2,67.8,29.94,SW,225,1.6,3.1,58,0.00,,,0.00,WUHU216EASYWX,2013-07-08 13:12:00,
2013-07-08 08:17:00,85.1,68.2,29.95,South,180,1.6,3.1,57,0.00,,,0.00,WUHU216EASYWX,2013-07-08 13:17:00,
2013-07-08 08:22:00,85.3,67.8,29.95,SW,225,3.1,6.0,56,0.00,,,0.00,WUHU216EASYWX,2013-07-08 13:22:00,
2013-07-08 08:27:00,86.0,68.5,29.95,SW,225,0.0,6.0,56,0.00,,,0.00,WUHU216EASYWX,2013-07-08 13:27:00,
2013-07-08 08:32:00,87.4,68.9,29.95,SE,135,3.1,3.8,54,0.00,,,0.00,WUHU216EASYWX,2013-07-08 13:32:00,
2013-07-08 08:37:00,87.4,68.9,29.95,SE,135,3.1,3.8,54,0.00,,,0.00,WUHU216EASYWX,2013-07-08 13:37:00,
2013-07-08 08:42:00,87.4,68.4,29.95,South,180,0.7,3.1,53,0.00,,,0.00,WUHU216EASYWX,2013-07-08 13:42:00,
2013-07-08 08:47:00,87.1,68.0,29.96,SE,135,0.7,2.2,53,0.00,,,0.00,WUHU216EASYWX,2013-07-08 13:47:00,
2013-07-08 08:52:00,87.4,68.4,29.95,East,90,0.7,3.1,53,0.00,,,0.00,WUHU216EASYWX,2013-07-08 13:52:00,
2013-07-08 08:57:00,88.3,69.1,29.96,NE,45,1.6,3.8,53,0.00,,,0.00,WUHU216EASYWX,2013-07-08 13:57:00,
2013-07-08 09:02:00,88.3,68.0,29.96,SSW,203,4.5,5.4,51,0.00,,,0.00,WUHU216EASYWX,2013-07-08 14:02:00,
2013-07-08 09:07:00,88.3,68.0,29.96,SSW,203,4.5,5.4,51,0.00,,,0.00,WUHU216EASYWX,2013-07-08 14:07:00,
2013-07-08 09:12:00,88.3,68.0,29.96,South,180,2.2,5.4,51,0.00,,,0.00,WUHU216EASYWX,2013-07-08 14:12:00,
2013-07-08 09:17:00,88.9,69.1,29.96,South,180,3.1,4.5,52,0.00,,,0.00,WUHU216EASYWX,2013-07-08 14:17:00,
2013-07-08 09:22:00,88.7,68.4,29.96,West,270,1.6,4.5,51,0.00,,,0.00,WUHU216EASYWX,2013-07-08 14:22:00,
2013-07-08 09:27:00,89.8,68.7,29.95,South,180,2.2,4.5,50,0.00,,,0.00,WUHU216EASYWX,2013-07-08 14:27:00,
2013-07-08 09:32:00,90.3,68.7,29.95,WSW,248,3.1,5.4,49,0.00,,,0.00,WUHU216EASYWX,2013-07-08 14:32:00,
2013-07-08 09:37:00,89.2,68.2,29.95,South,180,3.1,5.4,50,0.00,,,0.00,WUHU216EASYWX,2013-07-08 14:37:00,
2013-07-08 09:42:00,89.1,68.7,29.95,West,270,2.2,5.4,51,0.00,,,0.00,WUHU216EASYWX,2013-07-08 14:42:00,
2013-07-08 09:47:00,90.1,69.1,29.95,SW,225,8.3,12.1,50,0.00,,,0.00,WUHU216EASYWX,2013-07-08 14:47:00,
2013-07-08 09:52:00,89.1,68.7,29.95,South,180,4.5,12.1,51,0.00,,,0.00,WUHU216EASYWX,2013-07-08 14:52:00,
2013-07-08 09:57:00,89.2,68.7,29.95,South,180,3.1,7.6,51,0.00,,,0.00,WUHU216EASYWX,2013-07-08 14:57:00,
2013-07-08 10:02:00,90.7,68.9,29.95,South,180,3.1,3.8,49,0.00,,,0.00,WUHU216EASYWX,2013-07-08 15:02:00,
2013-07-08 10:07:00,90.1,68.5,29.95,SW,225,6.0,9.9,49,0.00,,,0.00,WUHU216EASYWX,2013-07-08 15:07:00,
2013-07-08 10:12:00,89.8,68.2,29.95,South,180,4.5,9.9,49,0.00,,,0.00,WUHU216EASYWX,2013-07-08 15:12:00,
2013-07-08 10:17:00,90.7,68.9,29.95,SW,225,3.8,9.2,49,0.00,,,0.00,WUHU216EASYWX,2013-07-08 15:17:00,
2013-07-08 10:23:00,91.2,69.4,29.94,SW,225,3.8,6.9,49,0.00,,,0.00,WUHU216EASYWX,2013-07-08 15:23:00,
2013-07-08 10:28:00,91.2,69.4,29.94,South,180,0.7,6.9,49,0.00,,,0.00,WUHU216EASYWX,2013-07-08 15:28:00,
2013-07-08 10:33:00,91.8,69.3,29.94,SW,225,6.0,9.2,48,0.00,,,0.00,WUHU216EASYWX,2013-07-08 15:33:00,
2013-07-08 10:39:00,91.8,69.3,29.94,NW,315,3.1,9.2,48,0.00,,,0.00,WUHU216EASYWX,2013-07-08 15:39:00,
2013-07-08 10:44:00,93.0,69.3,29.94,NW,315,2.2,5.4,46,0.00,,,0.00,WUHU216EASYWX,2013-07-08 15:44:00,
2013-07-08 10:49:00,91.9,68.2,29.94,SW,225,4.5,6.9,46,0.00,,,0.00,WUHU216EASYWX,2013-07-08 15:49:00,
2013-07-08 10:54:00,92.3,69.3,29.94,SW,225,3.8,6.9,47,0.00,,,0.00,WUHU216EASYWX,2013-07-08 15:54:00,
2013-07-08 10:59:00,91.9,68.2,29.94,SW,225,6.9,9.9,46,0.00,,,0.00,WUHU216EASYWX,2013-07-08 15:59:00,
2013-07-08 11:03:00,91.8,68.7,29.94,South,180,3.1,9.9,47,0.00,,,0.00,WUHU216EASYWX,2013-07-08 16:03:00,
2013-07-08 11:10:00,92.1,68.4,29.94,SW,225,5.4,7.6,46,0.00,,,0.00,WUHU216EASYWX,2013-07-08 16:10:00,
2013-07-08 11:15:00,91.8,68.7,29.94,NW,315,2.2,7.6,47,0.00,,,0.00,WUHU216EASYWX,2013-07-08 16:15:00,
2013-07-08 11:20:00,93.0,69.8,29.94,South,180,3.1,7.6,47,0.00,,,0.00,WUHU216EASYWX,2013-07-08 16:20:00,
2013-07-08 11:25:00,93.0,69.8,29.94,South,180,3.1,4.5,47,0.00,,,0.00,WUHU216EASYWX,2013-07-08 16:25:00,
2013-07-08 11:30:00,94.1,68.9,29.94,WNW,293,4.5,7.6,44,0.00,,,0.00,WUHU216EASYWX,2013-07-08 16:30:00,
2013-07-08 11:35:00,93.9,68.7,29.94,SW,225,5.4,7.6,44,0.00,,,0.00,WUHU216EASYWX,2013-07-08 16:35:00,
2013-07-08 11:40:00,93.2,68.2,29.93,NE,45,2.2,7.6,44,0.00,,,0.00,WUHU216EASYWX,2013-07-08 16:40:00,
2013-07-08 11:45:00,93.2,68.2,29.93,NE,45,2.2,7.6,44,0.00,,,0.00,WUHU216EASYWX,2013-07-08 16:45:00,
2013-07-08 11:50:00,94.1,68.9,29.93,West,270,3.8,6.0,44,0.00,,,0.00,WUHU216EASYWX,2013-07-08 16:50:00,
2013-07-08 11:56:00,93.6,68.4,29.93,WSW,248,3.8,7.6,44,0.00,,,0.00,WUHU216EASYWX,2013-07-08 16:56:00,
2013-07-08 12:01:00,93.4,68.4,29.93,SW,225,8.3,12.1,44,0.00,,,0.00,WUHU216EASYWX,2013-07-08 17:01:00,
2013-07-08 12:06:00,93.2,68.2,29.94,SW,225,3.1,12.1,44,0.00,,,0.00,WUHU216EASYWX,2013-07-08 17:06:00,
2013-07-08 12:11:00,93.4,68.4,29.93,West,270,3.1,6.0,44,0.00,,,0.00,WUHU216EASYWX,2013-07-08 17:11:00,
2013-07-08 12:16:00,94.8,69.6,29.93,South,180,3.8,6.0,44,0.00,,,0.00,WUHU216EASYWX,2013-07-08 17:16:00,
2013-07-08 12:21:00,94.5,68.5,29.93,SE,135,5.4,9.2,43,0.00,,,0.00,WUHU216EASYWX,2013-07-08 17:21:00,
2013-07-08 12:26:00,94.3,68.4,29.93,SW,225,3.8,9.2,43,0.00,,,0.00,WUHU216EASYWX,2013-07-08 17:26:00,
2013-07-08 12:32:00,94.8,68.9,29.93,SW,225,3.8,6.9,43,0.00,,,0.00,WUHU216EASYWX,2013-07-08 17:32:00,
2013-07-08 12:37:00,95.4,68.7,29.93,South,180,3.8,6.9,42,0.00,,,0.00,WUHU216EASYWX,2013-07-08 17:37:00,
2013-07-08 12:42:00,95.7,67.6,29.93,SW,225,7.6,10.8,40,0.00,,,0.00,WUHU216EASYWX,2013-07-08 17:42:00,
2013-07-08 12:47:00,95.4,68.0,29.93,SSE,158,3.8,10.8,41,0.00,,,0.00,WUHU216EASYWX,2013-07-08 17:47:00,
2013-07-08 12:52:00,95.5,68.2,29.93,West,270,6.9,12.1,41,0.00,,,0.00,WUHU216EASYWX,2013-07-08 17:52:00,
2013-07-08 12:57:00,95.0,68.4,29.93,SE,135,4.5,12.1,42,0.00,,,0.00,WUHU216EASYWX,2013-07-08 17:57:00,
2013-07-08 13:02:00,95.4,67.3,29.93,SW,225,4.5,9.2,40,0.00,,,0.00,WUHU216EASYWX,2013-07-08 18:02:00,
2013-07-08 13:07:00,95.4,67.3,29.93,SW,225,4.5,9.2,40,0.00,,,0.00,WUHU216EASYWX,2013-07-08 18:07:00,
2013-07-08 13:12:00,95.5,67.5,29.93,South,180,5.4,9.2,40,0.00,,,0.00,WUHU216EASYWX,2013-07-08 18:12:00,
2013-07-08 13:17:00,95.9,67.8,29.93,South,180,6.9,9.9,40,0.00,,,0.00,WUHU216EASYWX,2013-07-08 18:17:00,
2013-07-08 13:23:00,95.9,67.8,29.93,South,180,4.5,9.9,40,0.00,,,0.00,WUHU216EASYWX,2013-07-08 18:23:00,
2013-07-08 13:28:00,95.4,67.3,29.93,South,180,4.5,6.9,40,0.00,,,0.00,WUHU216EASYWX,2013-07-08 18:28:00,
2013-07-08 13:40:00,95.9,67.1,29.93,SW,225,3.8,7.6,39,0.00,,,0.00,WUHU216EASYWX,2013-07-08 18:40:00,
2013-07-08 13:45:00,96.1,68.0,29.92,South,180,3.8,9.9,40,0.00,,,0.00,WUHU216EASYWX,2013-07-08 18:45:00,
2013-07-08 13:50:00,96.1,68.0,29.92,South,180,3.8,9.9,40,0.00,,,0.00,WUHU216EASYWX,2013-07-08 18:50:00,
2013-07-08 13:55:00,96.1,68.0,29.92,South,180,4.5,11.4,40,0.00,,,0.00,WUHU216EASYWX,2013-07-08 18:55:00,
2013-07-08 14:01:00,96.1,67.3,29.91,NW,315,6.0,9.9,39,0.00,,,0.00,WUHU216EASYWX,2013-07-08 19:01:00,
2013-07-08 14:07:00,95.7,68.4,29.92,South,180,9.2,11.4,41,0.00,,,0.00,WUHU216EASYWX,2013-07-08 19:07:00,
2013-07-08 14:13:00,95.9,68.5,29.91,SW,225,2.2,11.4,41,0.00,,,0.00,WUHU216EASYWX,2013-07-08 19:13:00,
2013-07-08 14:18:00,96.4,68.2,29.91,South,180,3.8,6.0,40,0.00,,,0.00,WUHU216EASYWX,2013-07-08 19:18:00,
2013-07-08 14:26:00,96.6,68.4,29.91,East,90,1.6,4.5,40,0.00,,,0.00,WUHU216EASYWX,2013-07-08 19:26:00,
2013-07-08 14:32:00,97.3,69.1,29.91,South,180,5.4,8.3,40,0.00,,,0.00,WUHU216EASYWX,2013-07-08 19:32:00,
2013-07-08 14:37:00,97.5,68.5,29.91,ESE,113,2.2,8.3,39,0.00,,,0.00,WUHU216EASYWX,2013-07-08 19:37:00,
2013-07-08 14:43:00,97.3,68.4,29.91,SW,225,3.1,4.5,39,0.00,,,0.00,WUHU216EASYWX,2013-07-08 19:43:00,
2013-07-08 14:47:00,97.5,68.5,29.91,East,90,4.5,6.9,39,0.00,,,0.00,WUHU216EASYWX,2013-07-08 19:47:00,
2013-07-08 14:53:00,97.3,68.4,29.91,South,180,3.1,6.9,39,0.00,,,0.00,WUHU216EASYWX,2013-07-08 19:53:00,
2013-07-08 14:58:00,97.7,68.5,29.91,South,180,2.2,4.5,39,0.00,,,0.00,WUHU216EASYWX,2013-07-08 19:58:00,
2013-07-08 15:03:00,97.7,68.5,29.91,South,180,2.2,4.5,39,0.00,,,0.00,WUHU216EASYWX,2013-07-08 20:03:00,
2013-07-08 15:09:00,97.7,68.5,29.90,South,180,2.2,4.5,39,0.00,,,0.00,WUHU216EASYWX,2013-07-08 20:09:00,
2013-07-08 15:14:00,97.3,68.4,29.90,South,180,4.5,8.3,39,0.00,,,0.00,WUHU216EASYWX,2013-07-08 20:14:00,
2013-07-08 15:15:00,97.2,68.2,29.90,South,180,2.2,8.3,39,0.00,,,0.00,WUHU216EASYWX,2013-07-08 20:15:00,
2013-07-08 15:19:00,97.2,68.2,29.90,South,180,2.2,8.3,39,0.00,,,0.00,WUHU216EASYWX,2013-07-08 20:19:00,
2013-07-08 15:25:00,97.2,67.5,29.90,South,180,2.2,6.0,38,0.00,,,0.00,WUHU216EASYWX,2013-07-08 20:25:00,
2013-07-08 15:30:00,96.1,68.0,29.90,NE,45,3.8,6.0,40,0.00,,,0.00,WUHU216EASYWX,2013-07-08 20:30:00,
2013-07-08 15:36:00,96.4,68.9,29.90,SW,225,5.4,8.3,41,0.00,,,0.00,WUHU216EASYWX,2013-07-08 20:36:00,
2013-07-08 15:41:00,97.7,68.5,29.90,SSW,203,5.4,7.6,39,0.00,,,0.00,WUHU216EASYWX,2013-07-08 20:41:00,
2013-07-08 15:46:00,97.9,68.7,29.90,SW,225,5.4,9.9,39,0.00,,,0.00,WUHU216EASYWX,2013-07-08 20:46:00,
2013-07-08 15:52:00,97.9,68.7,29.90,SW,225,5.4,9.9,39,0.00,,,0.00,WUHU216EASYWX,2013-07-08 20:52:00,
2013-07-08 15:57:00,97.9,68.7,29.90,South,180,2.2,5.4,39,0.00,,,0.00,WUHU216EASYWX,2013-07-08 20:57:00,
2013-07-08 16:03:00,97.5,68.5,29.90,South,180,0.7,5.4,39,0.00,,,0.00,WUHU216EASYWX,2013-07-08 21:03:00,
2013-07-08 16:08:00,98.2,69.1,29.90,SW,225,2.2,3.8,39,0.00,,,0.00,WUHU216EASYWX,2013-07-08 21:08:00,
2013-07-08 16:13:00,99.0,66.6,29.90,SW,225,3.8,6.0,35,0.00,,,0.00,WUHU216EASYWX,2013-07-08 21:13:00,
2013-07-08 16:18:00,98.1,64.9,29.90,SW,225,5.4,7.6,34,0.00,,,0.00,WUHU216EASYWX,2013-07-08 21:18:00,
2013-07-08 16:23:00,97.7,66.4,29.90,SW,225,2.2,7.6,36,0.00,,,0.00,WUHU216EASYWX,2013-07-08 21:23:00,
2013-07-08 16:28:00,98.2,66.7,29.90,South,180,3.8,6.9,36,0.00,,,0.00,WUHU216EASYWX,2013-07-08 21:28:00,
2013-07-08 16:34:00,98.1,66.6,29.89,SW,225,4.5,6.9,36,0.00,,,0.00,WUHU216EASYWX,2013-07-08 21:34:00,
2013-07-08 16:39:00,98.6,67.1,29.89,SW,225,3.1,6.9,36,0.00,,,0.00,WUHU216EASYWX,2013-07-08 21:39:00,
2013-07-08 16:44:00,99.1,67.6,29.89,ESE,113,5.4,9.9,36,0.00,,,0.00,WUHU216EASYWX,2013-07-08 21:44:00,
2013-07-08 16:50:00,99.0,64.9,29.89,South,180,3.8,9.9,33,0.00,,,0.00,WUHU216EASYWX,2013-07-08 21:50:00,
2013-07-08 16:55:00,98.2,65.1,29.89,SW,225,4.5,6.9,34,0.00,,,0.00,WUHU216EASYWX,2013-07-08 21:55:00,
2013-07-08 17:01:00,97.5,66.2,29.89,SW,225,6.0,9.2,36,0.00,,,0.00,WUHU216EASYWX,2013-07-08 22:01:00,
2013-07-08 17:06:00,97.5,66.2,29.89,SW,225,6.0,9.2,36,0.00,,,0.00,WUHU216EASYWX,2013-07-08 22:06:00,
2013-07-08 17:11:00,98.8,66.4,29.89,NE,45,1.6,9.2,35,0.00,,,0.00,WUHU216EASYWX,2013-07-08 22:11:00,
2013-07-08 17:16:00,98.6,66.2,29.89,NW,315,4.5,7.6,35,0.00,,,0.00,WUHU216EASYWX,2013-07-08 22:16:00,
2013-07-08 17:22:00,97.5,65.3,29.89,South,180,3.8,8.3,35,0.00,,,0.00,WUHU216EASYWX,2013-07-08 22:22:00,
2013-07-08 17:27:00,97.5,64.6,29.89,SE,135,1.6,8.3,34,0.00,,,0.00,WUHU216EASYWX,2013-07-08 22:27:00,
2013-07-08 17:32:00,97.7,64.6,29.88,SW,225,3.8,6.0,34,0.00,,,0.00,WUHU216EASYWX,2013-07-08 22:32:00,
2013-07-08 17:38:00,97.5,65.3,29.89,South,180,4.5,7.6,35,0.00,,,0.00,WUHU216EASYWX,2013-07-08 22:38:00,
2013-07-08 17:44:00,97.0,65.7,29.88,South,180,4.5,8.3,36,0.00,,,0.00,WUHU216EASYWX,2013-07-08 22:44:00,
2013-07-08 17:49:00,96.3,65.8,29.88,SW,225,6.9,9.9,37,0.00,,,0.00,WUHU216EASYWX,2013-07-08 22:49:00,
2013-07-08 17:55:00,96.3,65.1,29.88,South,180,3.8,9.9,36,0.00,,,0.00,WUHU216EASYWX,2013-07-08 22:55:00,
2013-07-08 18:00:00,97.0,67.3,29.88,SE,135,4.5,9.2,38,0.00,,,0.00,WUHU216EASYWX,2013-07-08 23:00:00,
2013-07-08 18:05:00,96.8,66.4,29.88,SW,225,3.8,7.6,37,0.00,,,0.00,WUHU216EASYWX,2013-07-08 23:05:00,
2013-07-08 18:11:00,96.6,66.9,29.88,SW,225,4.5,8.3,38,0.00,,,0.00,WUHU216EASYWX,2013-07-08 23:11:00,
2013-07-08 18:16:00,96.3,66.6,29.87,South,180,3.8,8.3,38,0.00,,,0.00,WUHU216EASYWX,2013-07-08 23:16:00,
2013-07-08 18:21:00,96.1,68.0,29.87,SW,225,3.1,6.0,40,0.00,,,0.00,WUHU216EASYWX,2013-07-08 23:21:00,
2013-07-08 18:26:00,96.1,68.0,29.87,SW,225,5.4,7.6,40,0.00,,,0.00,WUHU216EASYWX,2013-07-08 23:26:00,
2013-07-08 18:32:00,96.3,68.0,29.87,SW,225,4.5,7.6,40,0.00,,,0.00,WUHU216EASYWX,2013-07-08 23:32:00,
2013-07-08 18:38:00,96.3,68.0,29.87,SW,225,0.7,6.9,40,0.00,,,0.00,WUHU216EASYWX,2013-07-08 23:38:00,
2013-07-08 18:43:00,96.3,66.6,29.88,SE,135,3.1,6.9,38,0.00,,,0.00,WUHU216EASYWX,2013-07-08 23:43:00,
2013-07-08 18:48:00,96.1,66.4,29.87,South,180,5.4,8.3,38,0.00,,,0.00,WUHU216EASYWX,2013-07-08 23:48:00,
2013-07-08 18:53:00,95.7,66.2,29.88,SSE,158,2.2,8.3,38,0.00,,,0.00,WUHU216EASYWX,2013-07-08 23:53:00,
2013-07-08 18:58:00,95.2,66.4,29.88,SSW,203,3.8,8.3,39,0.00,,,0.00,WUHU216EASYWX,2013-07-08 23:58:00,
2013-07-08 19:04:00,95.0,66.9,29.88,NW,315,0.0,8.3,40,0.00,,,0.00,WUHU216EASYWX,2013-07-09 00:04:00,
2013-07-08 19:09:00,95.0,66.9,29.88,NW,315,0.0,1.6,40,0.00,,,0.00,WUHU216EASYWX,2013-07-09 00:09:00,
2013-07-08 19:14:00,95.5,67.5,29.88,South,180,4.5,6.0,40,0.00,,,0.00,WUHU216EASYWX,2013-07-09 00:14:00,
2013-07-08 19:19:00,94.8,67.5,29.88,East,90,0.7,6.0,41,0.00,,,0.00,WUHU216EASYWX,2013-07-09 00:19:00,
2013-07-08 19:24:00,94.8,68.2,29.88,South,180,3.8,6.9,42,0.00,,,0.00,WUHU216EASYWX,2013-07-09 00:24:00,
2013-07-08 19:30:00,94.5,67.3,29.88,SE,135,5.4,8.3,41,0.00,,,0.00,WUHU216EASYWX,2013-07-09 00:30:00,
2013-07-08 19:35:00,93.2,66.7,29.88,South,180,0.7,8.3,42,0.00,,,0.00,WUHU216EASYWX,2013-07-09 00:35:00,
2013-07-08 19:40:00,93.2,66.7,29.88,South,180,0.7,7.6,42,0.00,,,0.00,WUHU216EASYWX,2013-07-09 00:40:00,
2013-07-08 19:45:00,92.7,67.6,29.88,South,180,2.2,3.8,44,0.00,,,0.00,WUHU216EASYWX,2013-07-09 00:45:00,
2013-07-08 19:50:00,92.7,67.6,29.88,South,180,2.2,3.8,44,0.00,,,0.00,WUHU216EASYWX,2013-07-09 00:50:00,
2013-07-08 19:55:00,92.5,67.5,29.88,SSE,158,0.7,4.5,44,0.00,,,0.00,WUHU216EASYWX,2013-07-09 00:55:00,
2013-07-08 20:00:00,92.3,67.3,29.88,South,180,3.1,4.5,44,0.00,,,0.00,WUHU216EASYWX,2013-07-09 01:00:00,
2013-07-08 20:06:00,91.9,66.9,29.87,South,180,2.2,4.5,44,0.00,,,0.00,WUHU216EASYWX,2013-07-09 01:06:00,
2013-07-08 20:11:00,91.4,66.6,29.88,South,180,1.6,3.8,44,0.00,,,0.00,WUHU216EASYWX,2013-07-09 01:11:00,
2013-07-08 20:16:00,91.0,66.2,29.88,South,180,0.0,3.1,44,0.00,,,0.00,WUHU216EASYWX,2013-07-09 01:16:00,
2013-07-08 20:21:00,90.1,66.6,29.88,South,180,0.0,1.6,46,0.00,,,0.00,WUHU216EASYWX,2013-07-09 01:21:00,
2013-07-08 20:26:00,89.6,66.7,29.88,East,90,0.0,1.6,47,0.00,,,0.00,WUHU216EASYWX,2013-07-09 01:26:00,
2013-07-08 20:33:00,88.9,67.3,29.88,SW,225,1.6,3.1,49,0.00,,,0.00,WUHU216EASYWX,2013-07-09 01:33:00,
2013-07-08 20:38:00,88.5,66.9,29.88,SE,135,0.7,3.1,49,0.00,,,0.00,WUHU216EASYWX,2013-07-09 01:38:00,
2013-07-08 20:43:00,88.0,67.1,29.88,SE,135,0.0,1.6,50,0.00,,,0.00,WUHU216EASYWX,2013-07-09 01:43:00,
2013-07-08 20:48:00,87.6,67.3,29.88,West,270,0.0,1.6,51,0.00,,,0.00,WUHU216EASYWX,2013-07-09 01:48:00,
2013-07-08 20:54:00,87.3,66.9,29.88,North,0,0.0,0.0,51,0.00,,,0.00,WUHU216EASYWX,2013-07-09 01:54:00,
2013-07-08 20:59:00,86.7,67.6,29.88,East,90,0.0,0.7,53,0.00,,,0.00,WUHU216EASYWX,2013-07-09 01:59:00,
2013-07-08 21:04:00,86.4,67.3,29.88,East,90,0.0,0.7,53,0.00,,,0.00,WUHU216EASYWX,2013-07-09 02:04:00,
2013-07-08 21:09:00,86.4,67.3,29.88,East,90,0.0,0.7,53,0.00,,,0.00,WUHU216EASYWX,2013-07-09 02:09:00,
2013-07-08 21:14:00,85.6,67.6,29.88,SE,135,0.0,0.7,55,0.00,,,0.00,WUHU216EASYWX,2013-07-09 02:14:00,
2013-07-08 21:20:00,85.5,68.0,29.88,East,90,0.0,0.7,56,0.00,,,0.00,WUHU216EASYWX,2013-07-09 02:20:00,
2013-07-08 21:25:00,85.3,67.8,29.88,North,0,0.0,0.7,56,0.00,,,0.00,WUHU216EASYWX,2013-07-09 02:25:00,
2013-07-08 21:30:00,85.1,67.6,29.88,East,90,0.0,0.7,56,0.00,,,0.00,WUHU216EASYWX,2013-07-09 02:30:00,
2013-07-08 21:35:00,84.4,68.0,29.88,South,180,0.0,0.7,58,0.00,,,0.00,WUHU216EASYWX,2013-07-09 02:35:00,
2013-07-08 21:41:00,84.2,67.8,29.88,NE,45,0.7,1.6,58,0.00,,,0.00,WUHU216EASYWX,2013-07-09 02:41:00,
2013-07-08 21:46:00,84.2,68.4,29.89,North,0,0.0,1.6,59,0.00,,,0.00,WUHU216EASYWX,2013-07-09 02:46:00,
2013-07-08 21:51:00,84.0,68.7,29.89,North,0,0.0,0.7,60,0.00,,,0.00,WUHU216EASYWX,2013-07-09 02:51:00,
2013-07-08 21:56:00,83.8,69.1,29.89,SE,135,0.0,0.7,61,0.00,,,0.00,WUHU216EASYWX,2013-07-09 02:56:00,
2013-07-08 22:01:00,83.8,69.1,29.89,SE,135,0.0,0.7,61,0.00,,,0.00,WUHU216EASYWX,2013-07-09 03:01:00,
2013-07-08 22:06:00,83.7,68.9,29.89,East,90,0.0,0.7,61,0.00,,,0.00,WUHU216EASYWX,2013-07-09 03:06:00,
2013-07-08 22:11:00,83.3,68.9,29.89,East,90,0.0,0.7,62,0.00,,,0.00,WUHU216EASYWX,2013-07-09 03:11:00,
2013-07-08 22:18:00,82.8,68.5,29.89,East,90,0.0,0.7,62,0.00,,,0.00,WUHU216EASYWX,2013-07-09 03:18:00,
2013-07-08 22:24:00,82.4,68.5,29.90,South,180,0.0,0.7,63,0.00,,,0.00,WUHU216EASYWX,2013-07-09 03:24:00,
2013-07-08 22:29:00,82.4,68.5,29.90,NE,45,0.0,0.7,63,0.00,,,0.00,WUHU216EASYWX,2013-07-09 03:29:00,
2013-07-08 22:34:00,82.2,68.9,29.90,South,180,3.1,3.8,64,0.00,,,0.00,WUHU216EASYWX,2013-07-09 03:34:00,
2013-07-08 22:39:00,82.4,68.5,29.90,East,90,0.0,3.8,63,0.00,,,0.00,WUHU216EASYWX,2013-07-09 03:39:00,
2013-07-08 22:44:00,82.4,68.5,29.90,South,180,0.7,1.6,63,0.00,,,0.00,WUHU216EASYWX,2013-07-09 03:44:00,
2013-07-08 22:49:00,82.6,68.7,29.90,SE,135,0.0,1.6,63,0.00,,,0.00,WUHU216EASYWX,2013-07-09 03:49:00,
2013-07-08 22:54:00,82.6,68.7,29.90,SW,225,0.7,0.7,63,0.00,,,0.00,WUHU216EASYWX,2013-07-09 03:54:00,
2013-07-08 22:59:00,82.6,68.7,29.91,SE,135,0.0,0.7,63,0.00,,,0.00,WUHU216EASYWX,2013-07-09 03:59:00,
2013-07-08 23:01:00,82.4,68.5,29.91,East,90,0.0,0.7,63,0.00,,,0.00,WUHU216EASYWX,2013-07-09 04:01:00,
2013-07-08 23:02:00,82.4,68.5,29.91,East,90,0.0,0.7,63,0.00,,,0.00,WUHU216EASYWX,2013-07-09 04:02:00,
2013-07-08 23:07:00,82.4,68.5,29.90,East,90,0.0,0.0,63,0.00,,,0.00,WUHU216EASYWX,2013-07-09 04:07:00,
2013-07-08 23:12:00,81.9,68.5,29.91,NE,45,0.0,0.0,64,0.00,,,0.00,WUHU216EASYWX,2013-07-09 04:12:00,
2013-07-08 23:17:00,81.7,68.9,29.91,ENE,68,0.0,0.7,65,0.00,,,0.00,WUHU216EASYWX,2013-07-09 04:17:00,
2013-07-08 23:22:00,81.5,68.7,29.90,NE,45,0.0,0.7,65,0.00,,,0.00,WUHU216EASYWX,2013-07-09 04:22:00,
2013-07-08 23:27:00,81.1,68.7,29.91,NE,45,0.7,3.1,66,0.00,,,0.00,WUHU216EASYWX,2013-07-09 04:27:00,
2013-07-08 23:32:00,81.0,68.5,29.91,East,90,0.7,3.1,66,0.00,,,0.00,WUHU216EASYWX,2013-07-09 04:32:00,
2013-07-08 23:37:00,80.4,68.9,29.91,East,90,0.0,1.6,68,0.00,,,0.00,WUHU216EASYWX,2013-07-09 04:37:00,
2013-07-08 23:42:00,80.2,69.3,29.91,East,90,0.0,0.7,69,0.00,,,0.00,WUHU216EASYWX,2013-07-09 04:42:00,
2013-07-08 23:47:00,79.9,68.9,29.91,East,90,0.0,0.7,69,0.00,,,0.00,WUHU216EASYWX,2013-07-09 04:47:00,
2013-07-08 23:52:00,79.7,69.1,29.91,East,90,0.0,0.7,70,0.00,,,0.00,WUHU216EASYWX,2013-07-09 04:52:00,
2013-07-08 23:57:00,79.5,68.9,29.91,South,180,0.0,0.7,70,0.00,,,0.00,WUHU216EASYWX,2013-07-09 04:57:00,